Simultaneous Nadir Overpasses (SNOs) Predictions

Prediction of SNOs between NOAA-19 and TERRA Satellite Orbit:

Table of predicted SNOs for the next 14.0 days since TLE Epoch: 7/5/2012
Index Date (NOAA-19) Time (NOAA-19) NOAA-19 Lat,Lon Date (TERRA) Time (TERRA) TERRA Lat,Lon Distance(km) Time Diff (sec)
1 07/07/2012 01:54:16 69.00, 150.77 07/07/2012 01:54:40 68.99, 150.71 2.61 24
2 07/07/2012 02:45:20 -68.86, -41.81 07/07/2012 02:44:10 -68.88, -41.80 1.54 70
3 07/09/2012 05:48:12 -69.74, -88.72 07/09/2012 05:49:21 -69.64, -87.15 61.55 69
4 07/09/2012 06:38:56 68.96, 79.66 07/09/2012 06:38:58 68.99, 79.63 3.26 2
5 07/09/2012 07:29:48 -68.20,-112.09 07/09/2012 07:28:39 -68.27,-113.63 64.14 69
6 07/11/2012 10:32:40 -69.08,-158.92 07/11/2012 10:33:49 -69.08,-158.97 1.77 69
7 07/11/2012 11:23:37 68.97, 8.48 07/11/2012 11:23:16 68.98, 8.54 2.71 21
8 07/13/2012 15:17:20 -69.05, 129.95 07/13/2012 15:18:07 -69.07, 129.94 2.21 47
9 07/13/2012 16:08:17 68.93, -62.63 07/13/2012 16:07:35 68.91, -62.62 2.96 42
10 07/15/2012 20:02:00 -69.02, 58.82 07/15/2012 20:02:25 -69.05, 58.84 2.82 25
11 07/15/2012 20:52:57 68.89,-133.73 07/15/2012 20:51:53 68.88,-133.73 0.81 64
12 07/17/2012 23:55:53 69.96, 179.06 07/17/2012 23:57:00 69.84,-178.81 82.51 67
13 07/18/2012 00:46:40 -69.00, -12.30 07/18/2012 00:46:43 -69.02, -12.27 2.71 3




NCC Satellite Simultaneous Nadir Overpasses (SNOs) Prediction Service

<
